User: anonymous
Location: Kitchener
(43.4500°N, 80.5000°W)
Time: 06:36:01
(UTC-04:00)
Language:

Cosmos 1939 Rocket - Orbit

View from above orbital plane
View from above orbital plane
View from above satellite
View from above satellite

Ground track
Ground track

The orbit data is extracted from the following two-line orbital elements,

1 19046U 88032B   14107.74422745  .00002575  00000-0  21340-3 0  8372
2 19046 097.6535 163.3410 0034538 300.6816 059.1005 14.99282260399141
Epoch (UTC): 17 April 2014 17:51:41
Eccentricity: 0.0034538
inclination: 97.6535°
perigee height: 545 km
apogee height: 593 km
right ascension of ascending node: 163.3410°
argument of perigee: 300.6816°
revolutions per day: 14.99282260
mean anomaly at epoch: 59.1005°
orbit number at epoch: 39914

The dashed part of the orbit path shows where the satellite is in the earth's shadow,  

DLR